Погода в Давлеканово

Россия / Республика Башкортостан     54°13′21″N   55°01′52″E
темп.,
°C
ветер,
м/с
пор.,
м/с
влажн.,
%
обл.,
%
осадки,
мм/ч
давл.,
гПа
погр.,
м
20 января, ср
ср2023:00−14ююз2295100 0.4 101331
02:00−17юз339588 0.0 101434
05:00−19юз369394 0.0 1015116
08:00−22юз2393100 0.0 101527
11:00−22ююз3593100 0.0 1016121
14:00−19юз4692100 0.0 1017393
17:00−18юз4792100 0.3 1018461
20:00−22ююз4794100 0.0 1019146
21 января, чт
чт2123:00−22ююз4795100 0.1 1019223
02:00−21ююз3697100 0.3 1020241
05:00−21ююз3697100 0.5 1020183
08:00−21юз3696100 0.2 1020191
11:00−20юз4796100 0.3 1020264
14:00−16юз4792100 0.2 1019353
17:00−17юз4793100 0.3 1018330
20:00−17юз3795100 0.3 1018323
22 января, пт
пт2223:00−16юз3794100 0.6 1018301
02:00−16юз3695100 0.2 1018194
05:00−15юз3695100 0.6 1017247
08:00−14юз3695100 0.5 1017203
11:00−13юз4794100 1.0 1018321
14:00−12з3593100 0.4 1018445
17:00−13зсз2595100 0.8 1019172
20:00−15сз3595100 0.1 1022113
23 января, сб
сб2323:00−21с339997 0.1 102527
02:00−25ссз229869 0.0 102720
05:00−27св009961 0.0 102920
08:00−25ююв229534 0.0 103020
11:00−20ююв369549 0.0 1031172
14:00−14ю61089100 0.0 1030421
17:00−13ю81394100 0.8 1028512
20:00−13ююз81592100 0.4 1027484
24 января, вс
вс2423:00−11ююз81492100 0.9 1026431
02:00−9ююз71393100 0.7 1025406
05:00−6ююз61294100 1.4 1024389
08:000ююз51199100 0.6 1024370
11:000юз71396100 0.9 1024459
14:000юз71388100 0.0 1024555
17:00+1юз81588100 0.0 1025736
20:00+1юз71588100 0.0 1026735